Regional Weather Roundup
Issued by NWS

Home | Current Version | Previous Version | Graphics & Text | Print | Product List | Glossary On
Versions: 1 2 3 4 5 6 7 8 9 10 11 12 13 14 15 16 17 18 19 20 21 22 23 24 25 26 27
000
ASUS45 KCYS 232310
RWRWY

WYOMING REGIONAL WEATHER ROUNDUP
NATIONAL WEATHER SERVICE CHEYENNE WY
500 PM MDT MON MAY 23 2016

NOTE:  "FAIR" INDICATES FEW OR NO CLOUDS BELOW 12,000 FEET
WITH NO SIGNIFICANT WEATHER AND/OR OBSTRUCTIONS TO VISIBILITY.

WYZ001-240000-
YELLOWSTONE NATIONAL PARK

CITY           SKY/WX    TMP DP  RH WIND       PRES   REMARKS
LK YELLOWSTONE   N/A     40  28  62 VRB5      29.95S
W YELLOWSTONE  NOT AVBL

$$
WYZ002>013-054>058-071-098>099-240000-
NORTHERN WYOMING

CITY           SKY/WX    TMP DP  RH WIND       PRES   REMARKS
JACKSON        MOSUNNY   54  23  30 W12       29.90R
CODY           FAIR      57  25  28 W7        29.80S
GREYBULL       FAIR      65  23  20 W10G18    29.78R
WORLAND        FAIR      66  20  17 CALM      29.76F
SHERIDAN       PTSUNNY   66  35  31 N10       29.76R
BUFFALO        FAIR      65  29  25 N9        29.79R
GILLETTE       FAIR      68  27  21 NW13      29.75R
HULETT         FAIR      70  21  16 SW14G24   29.76R
NEWCASTLE      FAIR      68  18  14 W12G18    29.77S

$$
WYZ014>020-022>026-101>103-240000-
CENTRAL WYOMING

CITY           SKY/WX    TMP DP  RH WIND       PRES   REMARKS
BIG PINEY      PTSUNNY   56  23  27 NW12G18   29.93S
PINEDALE       MOCLDY    50  28  43 NW13      29.95R
DUBOIS         MOCLDY    52  19  28 NW20G26   29.88S
LANDER         FAIR      61  28  28 SW9       29.83S
RIVERTON       FAIR      64  26  23 SW16      29.83S
CASPER         CLOUDY    58  25  28 W29G37    29.83S
DOUGLAS        FAIR      68  28  22 W24G31    29.82S

$$
WYZ021-027>030-104>119-240000-
SOUTHERN WYOMING

CITY           SKY/WX    TMP DP  RH WIND       PRES   REMARKS
EVANSTON       CLOUDY    53  28  38 NW9       29.94S
KEMMERER         N/A     54  25  32 W15G25    29.95S
FORT BRIDGER   CLEAR     52  37  58 SE10      29.98F
ROCK SPRINGS   PTSUNNY   52  31  44 W13       29.96S
DIXON          FAIR      61  25  25 W10       29.94S
RAWLINS        PTSUNNY   58  23  26 W20G25    29.93R
SARATOGA       MOCLDY    61  21  21 W24G30    29.93S
LARAMIE        PTSUNNY   56  20  24 S3        29.91S
CHEYENNE       FAIR      57  39  51 S18       29.91S
TORRINGTON     PTSUNNY   65  38  36 SE9       29.80F
PINE BLUFFS    TSTM      55  43  62 SW14G26   29.93R

$$




USA.gov is the U.S. government's official web portal to all federal, state and local government web resources and services.